Time,TemperatureF,DewpointF,PressureIn,WindDirection,WindDirectionDegrees,WindSpeedMPH,WindSpeedGustMPH,Humidity,HourlyPrecipIn,Conditions,Clouds,dailyrainin,SoftwareType,DateUTC
2013-11-08 00:02:00,52.0,-99.9,30.27,SSW,213,0.0,0.0,-999,0.00,,,0.00,,2013-11-08 07:02:00,
2013-11-08 00:22:00,52.0,-99.9,30.27,SSW,213,0.0,0.0,-999,0.00,,,0.00,,2013-11-08 07:22:00,
2013-11-08 00:32:00,52.0,-99.9,30.27,SSW,213,0.0,0.0,-999,0.00,,,0.00,,2013-11-08 07:32:00,
2013-11-08 00:52:00,50.0,-99.9,30.27,SSW,213,0.0,0.0,-999,0.00,,,0.00,,2013-11-08 07:52:00,
2013-11-08 01:02:00,50.0,-99.9,30.27,SSW,213,0.0,0.0,-999,0.00,,,0.00,,2013-11-08 08:02:00,
2013-11-08 01:22:00,48.0,-99.9,30.27,SSW,213,0.0,0.0,-999,0.00,,,0.00,,2013-11-08 08:22:00,
2013-11-08 01:32:00,48.0,-99.9,30.27,SSW,213,0.0,0.0,-999,0.00,,,0.00,,2013-11-08 08:32:00,
2013-11-08 01:52:00,48.0,-99.9,30.27,SSW,213,0.0,0.0,-999,0.00,,,0.00,,2013-11-08 08:52:00,
2013-11-08 02:03:00,48.0,-99.9,30.27,SSW,213,0.0,0.0,-999,0.00,,,0.00,,2013-11-08 09:03:00,
2013-11-08 02:22:00,50.0,-99.9,30.27,South,187,1.0,3.0,-999,0.00,,,0.00,,2013-11-08 09:22:00,
2013-11-08 02:34:00,50.0,-99.9,30.27,South,187,1.0,3.0,-999,0.00,,,0.00,,2013-11-08 09:34:00,
2013-11-08 02:54:00,51.0,-99.9,30.27,SSE,168,0.0,0.0,-999,0.00,,,0.00,,2013-11-08 09:54:00,
2013-11-08 03:03:00,51.0,-99.9,30.27,SSE,168,0.0,0.0,-999,0.00,,,0.00,,2013-11-08 10:03:00,
2013-11-08 03:23:00,51.0,-99.9,30.27,SSE,168,0.0,0.0,-999,0.00,,,0.00,,2013-11-08 10:23:00,
2013-11-08 03:33:00,51.0,-99.9,30.27,SSE,168,0.0,0.0,-999,0.00,,,0.00,,2013-11-08 10:33:00,
2013-11-08 03:53:00,52.0,-99.9,30.27,SSW,206,0.0,2.0,-999,0.00,,,0.00,,2013-11-08 10:53:00,
2013-11-08 04:02:00,52.0,-99.9,30.27,SSW,206,0.0,2.0,-999,0.00,,,0.00,,2013-11-08 11:02:00,
2013-11-08 04:22:00,46.0,-99.9,30.27,SSW,206,0.0,0.0,-999,0.00,,,0.00,,2013-11-08 11:22:00,
2013-11-08 04:33:00,46.0,-99.9,30.27,SSW,206,0.0,0.0,-999,0.00,,,0.00,,2013-11-08 11:33:00,
2013-11-08 04:52:00,44.0,-99.9,30.27,SSW,206,0.0,0.0,-999,0.00,,,0.00,,2013-11-08 11:52:00,
2013-11-08 05:02:00,44.0,-99.9,30.27,SSW,206,0.0,0.0,-999,0.00,,,0.00,,2013-11-08 12:02:00,
2013-11-08 05:22:00,44.0,-99.9,30.27,SSW,206,0.0,0.0,-999,0.00,,,0.00,,2013-11-08 12:22:00,
2013-11-08 05:32:00,44.0,-99.9,30.27,SSW,206,0.0,0.0,-999,0.00,,,0.00,,2013-11-08 12:32:00,
2013-11-08 05:52:00,44.0,-99.9,30.27,SSW,206,0.0,0.0,-999,0.00,,,0.00,,2013-11-08 12:52:00,
2013-11-08 06:22:00,44.0,-99.9,30.27,WSW,239,0.0,0.0,-999,0.00,,,0.00,,2013-11-08 13:22:00,
2013-11-08 06:32:00,44.0,-99.9,30.27,WSW,239,0.0,0.0,-999,0.00,,,0.00,,2013-11-08 13:32:00,
2013-11-08 06:52:00,44.0,-99.9,30.27,SSW,194,0.0,0.0,-999,0.00,,,0.00,,2013-11-08 13:52:00,
2013-11-08 07:02:00,44.0,-99.9,30.27,SSW,194,0.0,0.0,-999,0.00,,,0.00,,2013-11-08 14:02:00,
2013-11-08 07:22:00,43.0,-99.9,30.27,SSW,196,0.0,6.0,-999,0.00,,,0.00,,2013-11-08 14:22:00,
2013-11-08 07:32:00,43.0,-99.9,30.27,SSW,196,0.0,6.0,-999,0.00,,,0.00,,2013-11-08 14:32:00,
2013-11-08 07:52:00,44.0,-99.9,30.27,SW,232,1.0,6.0,-999,0.00,,,0.00,,2013-11-08 14:52:00,
2013-11-08 08:02:00,44.0,-99.9,30.27,SW,232,1.0,6.0,-999,0.00,,,0.00,,2013-11-08 15:02:00,
2013-11-08 08:22:00,47.0,-99.9,30.28,South,191,4.0,8.0,-999,0.00,,,0.00,,2013-11-08 15:22:00,
2013-11-08 08:33:00,47.0,-99.9,30.28,South,191,4.0,8.0,-999,0.00,,,0.00,,2013-11-08 15:33:00,
2013-11-08 08:53:00,50.0,-99.9,30.28,South,172,0.0,0.0,-999,0.00,,,0.00,,2013-11-08 15:53:00,
2013-11-08 09:03:00,50.0,-99.9,30.28,South,172,0.0,0.0,-999,0.00,,,0.00,,2013-11-08 16:03:00,
2013-11-08 09:23:00,53.0,-99.9,30.28,WSW,258,0.0,6.0,-999,0.00,,,0.00,,2013-11-08 16:23:00,
2013-11-08 09:33:00,53.0,-99.9,30.28,WSW,258,0.0,6.0,-999,0.00,,,0.00,,2013-11-08 16:33:00,
2013-11-08 09:53:00,59.0,-99.9,30.27,South,171,0.0,7.0,-999,0.00,,,0.00,,2013-11-08 16:53:00,
2013-11-08 10:02:00,59.0,-99.9,30.27,South,171,0.0,7.0,-999,0.00,,,0.00,,2013-11-08 17:02:00,
2013-11-08 10:22:00,62.0,-99.9,30.27,SSE,153,0.0,5.0,-999,0.00,,,0.00,,2013-11-08 17:22:00,
2013-11-08 10:33:00,62.0,-99.9,30.27,SSE,153,0.0,5.0,-999,0.00,,,0.00,,2013-11-08 17:33:00,
2013-11-08 10:53:00,65.0,-99.9,30.26,South,178,0.0,7.0,-999,0.00,,,0.00,,2013-11-08 17:53:00,
2013-11-08 11:02:00,65.0,-99.9,30.26,South,178,0.0,7.0,-999,0.00,,,0.00,,2013-11-08 18:02:00,
2013-11-08 11:22:00,68.0,-99.9,30.24,SSE,168,0.0,5.0,-999,0.00,,,0.00,,2013-11-08 18:22:00,
2013-11-08 11:33:00,68.0,-99.9,30.24,SSE,168,0.0,5.0,-999,0.00,,,0.00,,2013-11-08 18:33:00,
2013-11-08 11:53:00,71.0,-99.9,30.24,South,188,0.0,5.0,-999,0.00,,,0.00,,2013-11-08 18:53:00,
2013-11-08 12:02:00,71.0,-99.9,30.24,South,188,0.0,5.0,-999,0.00,,,0.00,,2013-11-08 19:02:00,
2013-11-08 12:22:00,73.0,-99.9,30.22,South,180,0.0,0.0,-999,0.00,,,0.00,,2013-11-08 19:22:00,
2013-11-08 12:32:00,73.0,-99.9,30.22,South,180,0.0,0.0,-999,0.00,,,0.00,,2013-11-08 19:32:00,
2013-11-08 12:53:00,72.0,-99.9,30.20,South,180,0.0,0.0,-999,0.00,,,0.00,,2013-11-08 19:53:00,
2013-11-08 13:02:00,72.0,-99.9,30.20,South,180,0.0,0.0,-999,0.00,,,0.00,,2013-11-08 20:02:00,
2013-11-08 13:22:00,73.0,-99.9,30.19,NNE,14,0.0,0.0,-999,0.00,,,0.00,,2013-11-08 20:22:00,
2013-11-08 13:33:00,73.0,-99.9,30.19,NNE,14,0.0,0.0,-999,0.00,,,0.00,,2013-11-08 20:33:00,
2013-11-08 13:53:00,73.0,-99.9,30.17,SSW,198,0.0,3.0,-999,0.00,,,0.00,,2013-11-08 20:53:00,
2013-11-08 14:03:00,73.0,-99.9,30.17,SSW,198,0.0,3.0,-999,0.00,,,0.00,,2013-11-08 21:03:00,
2013-11-08 14:23:00,72.0,-99.9,30.17,NNE,23,4.0,5.0,-999,0.00,,,0.00,,2013-11-08 21:23:00,
2013-11-08 14:34:00,72.0,-99.9,30.17,NNE,23,4.0,5.0,-999,0.00,,,0.00,,2013-11-08 21:34:00,
2013-11-08 14:54:00,72.0,-99.9,30.15,NNE,26,0.0,8.0,-999,0.00,,,0.00,,2013-11-08 21:54:00,
2013-11-08 15:04:00,72.0,-99.9,30.15,NNE,26,0.0,8.0,-999,0.00,,,0.00,,2013-11-08 22:04:00,
2013-11-08 15:43:00,73.0,-99.9,30.14,West,272,0.0,0.0,-999,0.00,,,0.00,,2013-11-08 22:43:00,
2013-11-08 15:53:00,73.0,-99.9,30.14,West,272,0.0,0.0,-999,0.00,,,0.00,,2013-11-08 22:53:00,
2013-11-08 16:12:00,74.0,-99.9,30.13,SSW,206,0.0,0.0,-999,0.00,,,0.00,,2013-11-08 23:12:00,
2013-11-08 16:22:00,74.0,-99.9,30.13,SSW,206,0.0,0.0,-999,0.00,,,0.00,,2013-11-08 23:22:00,
2013-11-08 16:43:00,74.0,-99.9,30.13,WSW,237,0.0,0.0,-999,0.00,,,0.00,,2013-11-08 23:43:00,
2013-11-08 16:53:00,74.0,-99.9,30.13,WSW,237,0.0,0.0,-999,0.00,,,0.00,,2013-11-08 23:53:00,
2013-11-08 17:12:00,75.0,-99.9,30.13,WSW,237,0.0,0.0,-999,0.00,,,0.00,,2013-11-09 00:12:00,
2013-11-08 17:22:00,75.0,-99.9,30.13,WSW,237,0.0,0.0,-999,0.00,,,0.00,,2013-11-09 00:22:00,
2013-11-08 17:42:00,71.0,-99.9,30.13,WSW,237,0.0,0.0,-999,0.00,,,0.00,,2013-11-09 00:42:00,
2013-11-08 17:52:00,71.0,-99.9,30.13,WSW,237,0.0,0.0,-999,0.00,,,0.00,,2013-11-09 00:52:00,
2013-11-08 18:11:00,67.0,-99.9,30.13,WSW,237,0.0,0.0,-999,0.00,,,0.00,,2013-11-09 01:11:00,
2013-11-08 18:22:00,67.0,-99.9,30.13,WSW,237,0.0,0.0,-999,0.00,,,0.00,,2013-11-09 01:22:00,
2013-11-08 18:42:00,66.0,-99.9,30.13,WSW,237,0.0,0.0,-999,0.00,,,0.00,,2013-11-09 01:42:00,
2013-11-08 18:52:00,66.0,-99.9,30.13,WSW,237,0.0,0.0,-999,0.00,,,0.00,,2013-11-09 01:52:00,
2013-11-08 19:12:00,64.0,-99.9,30.14,WSW,237,0.0,0.0,-999,0.00,,,0.00,,2013-11-09 02:12:00,
2013-11-08 19:22:00,64.0,-99.9,30.14,WSW,237,0.0,0.0,-999,0.00,,,0.00,,2013-11-09 02:22:00,
2013-11-08 19:42:00,64.0,-99.9,30.15,WSW,237,0.0,0.0,-999,0.00,,,0.00,,2013-11-09 02:42:00,
2013-11-08 19:52:00,64.0,-99.9,30.15,WSW,237,0.0,0.0,-999,0.00,,,0.00,,2013-11-09 02:52:00,
2013-11-08 20:12:00,63.0,-99.9,30.15,WSW,237,0.0,0.0,-999,0.00,,,0.00,,2013-11-09 03:12:00,
2013-11-08 20:22:00,63.0,-99.9,30.15,WSW,237,0.0,0.0,-999,0.00,,,0.00,,2013-11-09 03:22:00,
2013-11-08 20:44:00,58.0,-99.9,30.16,WSW,237,0.0,0.0,-999,0.00,,,0.00,,2013-11-09 03:44:00,
2013-11-08 20:55:00,58.0,-99.9,30.16,WSW,237,0.0,0.0,-999,0.00,,,0.00,,2013-11-09 03:55:00,
2013-11-08 21:13:00,58.0,-99.9,30.17,WSW,237,0.0,0.0,-999,0.00,,,0.00,,2013-11-09 04:13:00,
2013-11-08 21:23:00,58.0,-99.9,30.17,WSW,237,0.0,0.0,-999,0.00,,,0.00,,2013-11-09 04:23:00,
2013-11-08 21:43:00,56.0,-99.9,30.17,WSW,237,0.0,0.0,-999,0.00,,,0.00,,2013-11-09 04:43:00,
2013-11-08 21:54:00,56.0,-99.9,30.17,WSW,237,0.0,0.0,-999,0.00,,,0.00,,2013-11-09 04:54:00,
2013-11-08 22:13:00,55.0,-99.9,30.18,WSW,237,0.0,0.0,-999,0.00,,,0.00,,2013-11-09 05:13:00,
2013-11-08 22:23:00,55.0,-99.9,30.18,WSW,237,0.0,0.0,-999,0.00,,,0.00,,2013-11-09 05:23:00,
2013-11-08 22:44:00,54.0,-99.9,30.19,WSW,237,0.0,0.0,-999,0.00,,,0.00,,2013-11-09 05:44:00,
2013-11-08 22:53:00,54.0,-99.9,30.19,WSW,237,0.0,0.0,-999,0.00,,,0.00,,2013-11-09 05:53:00,
2013-11-08 23:13:00,54.0,-99.9,30.20,WSW,237,0.0,0.0,-999,0.00,,,0.00,,2013-11-09 06:13:00,
2013-11-08 23:23:00,54.0,-99.9,30.20,WSW,237,0.0,0.0,-999,0.00,,,0.00,,2013-11-09 06:23:00,
2013-11-08 23:43:00,53.0,-99.9,30.20,WSW,237,0.0,0.0,-999,0.00,,,0.00,,2013-11-09 06:43:00,
2013-11-08 23:54:00,53.0,-99.9,30.20,WSW,237,0.0,0.0,-999,0.00,,,0.00,,2013-11-09 06:54:00,